Dauntless Aviation
Airports Europe Germany
EDSW

Altdorf-Wallburg

Altdorf-Wallburg, GERMANY

Airport Info
Suggest Updated Information for this Airport

Location

Latitude / Longitude: 48°16'11"N / 7°50'31"E
  48°16.188'N / 7°50.532'E
  48.2698 / 7.8422
Satellite photo at:
Airport distance calculator
From:
Weather Reports

METAR

LFST
18.2nm NW
LFST 300500Z AUTO VRB01KT 9999 BKN050 17/16 Q1015 NOSIG
EDSB
32.3nm N
EDSB 300450Z VRB01KT 9999 FEW046 SCT055 BKN072 19/17 Q1014

TAF

LFST
18.2nm NW
TAF LFST 292300Z 3000/3024 25006KT 9999 SCT045 BECMG 3014/3016 36008KT PROB40 TEMPO 3022/3024 32015G25KT 3000 SHRA SCT030TCU
EDSB
32.3nm N
TAF EDSB 300300Z 3004/3024 VRB03KT CAVOK BECMG 3006/3008 24007KT BECMG 3016/3018 VRB03KT
Safelog

 

Dauntless Aviation

© 2007-2016 Dauntless Aviation, all rights reserved
Information provided via PilotNav comes from a variety of official and unofficial data sources. As errors are possible, do not use PilotNav for primary flight planning purposes. Verify any information that you receive via PilotNav with current and canonical charts and other official documents. The material in this database is subject to database copyrights held by Dauntless Aviation and may not be copied without the express permission of Dauntless Aviation - licenses for use of part of all of this data are available for purchase; enquire via the Dauntless Aviation helpdesk. A number of mechanisms and markers exist in the database to protect against and identify infringement / copyright. Automated queries against this website are stictly prohibited, and all activity is logged and analyzed.